Flag for U.S.A. Weather past 2 weeks in San Luis Obispo, California, U.S.A.

Now
64 °F

Low clouds.


Feels Like: 64 °F
Forecast: 60 / 78 °F
Wind: 7 mph from North

Location: San Luis Obispo County-Mc Chesney Field

Current Time: Aug 2, 2015 at 2:09:50 AM

Latest Report: Aug 2, 2015 at 1:56 AM


Visibility: 10 mi

Pressure: 29.93 "Hg

Humidity: 84%

Dew point: 59 °F

Location of San Luis ObispoLocation

Historic Weather in San Luis Obispo — Graph

°F

San Luis Obispo temperature yesterday

Maximum temperature yesterday: 78 °F (at 2:56 PM)
Minimum temperature yesterday: 62 °F (at 5:56 AM)
Average temperature yesterday: 68 °F

Past Weeks' High & Low Weather Summary

 TemperatureHumidityPressure
High87 °F (Jul 19, 4:56 PM)97% (Jul 21, 6:56 AM)30.08 "Hg (Jul 21, 6:56 AM)
Low52 °F (Jul 18, 5:56 AM)31% (Jul 25, 11:56 AM)29.86 "Hg (Jul 22, 3:56 AM)
Average68 °F74%29.96 "Hg
* Reported Jul 18 12:56 AM — Aug 2 12:56 AM, San Luis Obispo, Weather by CustomWeather, © 2015

Note: Actual official high and low records may vary slightly from our data, if they occured in-between our weather recording intervals... More about our weather records

Advertising

San Luis Obispo weather history for previous 24 hours

 ConditionsComfort  
Time TempWeatherWind HumidityBarometerVisibility
12:56 AM
Sun, Aug 2
63 °FOvercast.9 mph90%29.94 "Hg10 mi
11:56 PM
Sat, Aug 1
63 °FClear.7 mph87%29.95 "Hg10 mi
10:56 PM64 °FClear.7 mph84%29.96 "Hg10 mi
9:56 PM65 °FPassing clouds.6 mph81%29.97 "Hg10 mi
8:56 PM65 °FSunny.12 mph78%29.97 "Hg10 mi
7:56 PM66 °FSunny.14 mph75%29.95 "Hg10 mi
6:56 PM69 °FSunny.16 mph68%29.94 "Hg10 mi
5:56 PM73 °FSunny.20 mph59%29.93 "Hg10 mi
4:56 PM75 °FSunny.17 mph55%29.93 "Hg10 mi
3:56 PM78 °FSunny.18 mph50%29.93 "Hg10 mi
2:56 PM78 °FSunny.15 mph50%29.93 "Hg10 mi
1:56 PM77 °FSunny.18 mph52%29.94 "Hg10 mi
12:56 PM77 °FSunny.14 mph52%29.96 "Hg10 mi
11:56 AM75 °FSunny.15 mph55%29.97 "Hg10 mi
10:56 AM72 °FSunny.15 mph61%29.98 "Hg10 mi
9:56 AM70 °FSunny.9 mph66%29.99 "Hg10 mi
8:56 AM67 °FScattered clouds.10 mph73%30.00 "Hg10 mi
7:56 AM65 °FOvercast.7 mph78%30.00 "Hg10 mi
6:56 AM63 °FOvercast.7 mph87%30.00 "Hg10 mi
5:56 AM62 °FOvercast.7 mph86%29.98 "Hg10 mi
4:56 AM63 °FOvercast.8 mph84%29.97 "Hg10 mi
3:56 AM63 °FOvercast.9 mph87%29.98 "Hg10 mi
2:56 AM63 °FOvercast.6 mph87%29.97 "Hg10 mi
Weather by CustomWeather, © 2015

See weather overviewHow to use our weather pages